Regional Weather Roundup
Issued by NWS State College, PA

Home | Current Version | Previous Version | Text Only | Print | Product List | Glossary On
Versions: 1 2 3 4 5 6 7 8 9 10 11 12 13 14 15 16 17 18 19 20 21 22 23 24 25 26 27 28 29 30 31 32 33 34 35 36 37 38 39 40 41 42 43 44 45 46 47 48 49 50
000
ASUS41 KCTP 190010
RWRCTP

REGIONAL WEATHER ROUNDUP
NATIONAL WEATHER SERVICE STATE COLLEGE PA
800 PM EDT SAT APR 18 2015

Note: "fair" indicates few or no clouds below 12,000 feet with no
significant weather and/or obstructions to visibility.

* = STATION THAT DOES NOT REPORT PRECIPITATION /E.G. RAIN...SNOW...ETC/
    THUNDER OR FOG.

PAZ002>004-007>009-013>016-020>023-029>032-190100-
WESTERN PENNSYLVANIA

CITY           SKY/WX    TMP DP  RH WIND       PRES   REMARKS
ERIE           MOCLDY    59  24  26 NE14      30.10R
MEADVILLE      PTCLDY    61  32  33 N7        30.08R
FRANKLIN*      PTCLDY    63  36  36 N8        30.08R
NEW CASTLE     FAIR      67  41  38 N5        30.07R
BEAVER COUNTY  NOT AVBL
BUTLER*        CLOUDY    66  37  34 N5        30.06R
PITTSBURGH INT CLOUDY    71  41  33 N15       30.03R
PITTSBURGH     CLOUDY    69  36  29 N8        30.02R
INDIANA*       CLEAR     70  41  35 VRB5      30.06R
LATROBE        MOCLDY    70  41  35 NW7       30.03R
WASHINGTON CO* MOCLDY    70  41  35 N5        30.04R
$$

PAZ004>006-010>012-017>019-024>028-033>037-041-042-045-046-049>053-190100-
CENTRAL PENNSYLVANIA

CITY           SKY/WX    TMP DP  RH WIND       PRES   REMARKS
BRADFORD       PTCLDY    58  30  34 N8        30.08S
DUBOIS         MOCLDY    67  33  28 N9        30.03S
CLEARFIELD     MOCLDY    68  35  29 N10       30.02R
JOHNSTOWN      CLOUDY    67  37  33 N6        30.03S
ALTOONA        CLOUDY    69  38  32 NW6       30.01R
STATE COLLEGE  CLEAR     72  37  28 N8        30.00R
WILLIAMSPORT   PTCLDY    71  35  26 N10       29.98R
SELINSGROVE    PTCLDY    73  39  29 N13       29.95R
FT INDIANTOWN  MOCLDY    76  38  25 W5        29.93S
CAPITAL CITY   MOCLDY    72  41  32 SW5       29.93F
HARRISBURG     CLOUDY    71  39  31 CALM      29.93S
YORK           CLOUDY    66  47  50 CALM      29.95S
$$

PAZ038>040-043-044-047-048-054-055-060>062-067>071-190100-
EASTERN PENNSYLVANIA

CITY           SKY/WX    TMP DP  RH WIND       PRES   REMARKS
SCRANTON       CLEAR     65  34  31 N16       30.01R
MOUNT POCONO   CLEAR     64  37  36 N16G26    30.00R
ALLENTOWN      PTCLDY    73  39  29 NW8       29.92R
QUAKERTOWN*    PTCLDY    73  39  29 W3        29.93S
READING        PTCLDY    74  38  27 W5        29.92S
LANCASTER      MOCLDY    71  43  36 CALM      29.93F
COATESVILLE    MOCLDY    73  41  31 CALM      29.96S
POTTSTOWN      PTCLDY    74  38  27 SW3       29.94S
BLUE BELL      PTCLDY    73  45  35 CALM      29.92S
DOYLESTOWN     PTCLDY    72  37  28 SW3       29.91S
WILLOW GROVE   NOT AVBL
NORTH PHILA    MOCLDY    75  39  27 W9        29.93S
PHILADELPHIA   MOCLDY    73  42  32 SW13      29.93S
$$



USA.gov is the U.S. government's official web portal to all federal, state and local government web resources and services.